[[{"header":{"parameterUnit":"m.s-1","parameterCategory":1,"la1":30.2991,"la2":30.254,"lo1":-89.0895,"lo2":-89.0444,"dy":0.0017,"dx":0.0017,"nx":28,"ny":28,"refTime":"2023-07-18T09:00:00:Z","depth":0,"parameterNumber":2,"parameterNumberName":"U-component_of_WINDS"},"data":[0,0,0,0,0,0,0,0,0,0,0,0,0,0,0,0,0,0,0,0,0,0,0,0,0,0,0,0,0,0,0,0,0,0,0,0,0,0,0,0,0,0,0,0,0,0,0,0,0,0,0,0,0,0,0,0,0,0,-0.5611,-0.5611,0,-0.556,-0.556,-0.5559,-0.553,-0.553,-0.553,-0.553,-0.5479,-0.5477,-0.5476,0,0,0,0,0,0,0,0,0,0,0,0,0,-0.5686,-0.5684,-0.5612,-0.5611,-0.561,-0.5561,-0.556,-0.5559,-0.553,-0.553,-0.553,-0.553,-0.5479,-0.5477,-0.5476,0,0,0,0,0,0,0,0,0,0,0,0,0,-0.5646,-0.5684,-0.5612,-0.559,-0.5587,-0.5561,-0.556,-0.5559,-0.553,-0.553,-0.553,-0.553,-0.5479,-0.5478,-0.5476,-0.5467,0,0,-0.547,-0.5469,0,0,0,0,0,0,0,0,-0.5648,-0.5643,-0.5594,-0.5591,-0.5588,-0.5551,-0.5567,-0.5528,-0.553,-0.5552,-0.553,-0.553,-0.5503,-0.5499,-0.549,-0.5465,-0.5463,-0.547,-0.5469,-0.5468,-0.5467,0,0,0,0,0,0,0,-0.5651,-0.5645,-0.5591,-0.5593,-0.559,-0.5583,-0.5577,-0.556,-0.5529,-0.555,-0.5548,-0.5542,-0.5502,-0.5492,-0.5489,-0.5462,-0.547,-0.5468,-0.5467,-0.5466,-0.5428,-0.5428,0,0,0,0,0,0,-0.5657,-0.5648,-0.5593,-0.559,-0.5618,-0.5582,-0.5575,-0.5564,-0.5529,-0.5524,-0.5542,-0.5541,-0.5495,-0.5491,-0.5487,-0.5474,-0.5468,-0.5466,-0.5465,-0.5428,-0.5428,-0.5428,0,0,0,0,0,0,-0.5659,-0.5652,-0.5595,-0.5618,-0.561,-0.5581,-0.5568,-0.5563,-0.5553,-0.5523,-0.5518,-0.5538,-0.5495,-0.5489,-0.5472,-0.5472,-0.5465,-0.5463,-0.5427,-0.5428,-0.5428,-0.545,0,0,0,0,0,0,-0.5661,-0.5653,-0.5649,-0.5618,-0.5609,-0.5581,-0.5568,-0.5562,-0.5549,-0.5547,-0.5518,-0.5513,-0.5494,-0.5475,-0.547,-0.547,-0.5462,-0.5427,-0.5427,-0.5428,-0.5449,-0.5451,-0.5453,0,0,0,0,0,-0.5664,-0.5658,-0.5649,-0.5643,-0.5604,-0.5581,-0.5576,-0.5555,-0.555,-0.5546,-0.5527,-0.5514,-0.5473,-0.5474,-0.5468,-0.5467,-0.5427,-0.5427,-0.5428,-0.5449,-0.5451,-0.5453,0,0,0,0,0,0,-0.569,-0.5653,-0.5643,-0.5627,-0.5608,-0.5576,-0.5571,-0.5558,-0.554,-0.5538,-0.5513,-0.5507,-0.5492,-0.5478,-0.5479,-0.5457,-0.5449,-0.5448,-0.5467,-0.5468,-0.547,-0.5474,-0.546,0,0,0,0,0,-0.5694,-0.5678,-0.5647,-0.5636,-0.5627,-0.5601,-0.559,-0.5575,-0.5554,-0.5546,-0.5525,-0.5506,-0.5489,-0.5478,-0.546,-0.5447,-0.5441,-0.5444,-0.5445,-0.5447,-0.5446,-0.5438,-0.5439,-0.5429,-0.5429,-0.5429,0,0,-0.5702,-0.568,-0.5672,-0.5641,-0.5624,-0.5609,-0.5594,-0.5578,-0.5567,-0.5543,-0.5526,-0.5511,-0.5487,-0.5472,-0.5464,-0.5459,-0.5448,-0.5447,-0.5448,-0.5447,-0.5439,-0.544,-0.5441,-0.5429,-0.5429,-0.5429,0,0,-0.5709,-0.5691,-0.5679,-0.5662,-0.5637,-0.5619,-0.5617,-0.5587,-0.5576,-0.5558,-0.554,-0.5527,-0.5498,-0.5482,-0.547,-0.5471,-0.5458,-0.5466,-0.5474,-0.5467,-0.5468,-0.5469,-0.5469,-0.5469,-0.5465,-0.5465,-0.5465,0,-0.5722,-0.5698,-0.5675,-0.5661,-0.5648,-0.5625,-0.5614,-0.5599,-0.5569,-0.5561,-0.5556,-0.5519,-0.5502,-0.5483,-0.5483,-0.5474,-0.5471,-0.5469,-0.547,-0.547,-0.547,-0.547,-0.5471,-0.5467,-0.5466,-0.5466,-0.5466,0,-0.5716,-0.5699,-0.5693,-0.5665,-0.5651,-0.5638,-0.5614,-0.5603,-0.559,-0.5573,-0.5556,-0.5534,-0.5512,-0.5506,-0.5493,-0.5485,-0.5483,-0.5474,-0.5466,-0.5473,-0.5472,-0.5472,-0.5468,-0.5468,-0.5467,-0.5467,0,0,-0.5738,-0.5696,-0.5694,-0.5681,-0.5651,-0.5638,-0.5625,-0.5603,-0.5594,-0.5575,-0.5563,-0.5539,-0.5531,-0.5517,-0.5502,-0.5496,-0.5498,-0.5487,-0.5486,-0.549,-0.5488,-0.5495,-0.5496,-0.549,-0.5489,-0.5489,-0.549,0,-0.574,-0.5714,-0.5693,-0.5675,-0.566,-0.5638,-0.5627,-0.5608,-0.5592,-0.5577,-0.556,-0.5543,-0.5533,-0.5525,-0.5518,-0.5499,-0.5497,-0.5499,-0.5479,-0.5478,-0.5485,-0.5495,-0.5503,-0.5504,-0.549,-0.549,-0.549,0,-0.5739,-0.572,-0.57,-0.5672,-0.5665,-0.5654,-0.5633,-0.5619,-0.5597,-0.5586,-0.5571,-0.5555,-0.554,-0.5534,-0.5513,-0.5515,-0.5505,-0.5495,-0.5494,-0.5492,-0.5484,-0.5493,-0.5504,-0.5505,-0.549,-0.549,-0.549,0,-0.5757,-0.5727,-0.5711,-0.57,-0.5666,-0.566,-0.5646,-0.5623,-0.5612,-0.5593,-0.5585,-0.5565,-0.5554,-0.5539,-0.5519,-0.5515,-0.55,-0.5492,-0.5491,-0.5492,-0.5489,-0.5489,-0.5499,-0.5483,-0.5483,-0.5483,-0.5483,0,-0.5762,-0.5751,-0.5718,-0.5708,-0.5695,-0.5672,-0.566,-0.5644,-0.5624,-0.5612,-0.5592,-0.5581,-0.5555,-0.554,-0.5524,-0.551,-0.5505,-0.5496,-0.5492,-0.5498,-0.5499,-0.5491,-0.549,-0.5483,-0.5483,-0.5483,-0.5483,0,-0.578,-0.5758,-0.5739,-0.5709,-0.5701,-0.5693,-0.5667,-0.5657,-0.564,-0.5625,-0.562,-0.5593,-0.5575,-0.5553,-0.5529,-0.5518,-0.5505,-0.5499,-0.5512,-0.551,-0.5511,-0.5511,-0.5516,-0.5515,-0.55,-0.55,-0.55,0,-0.5785,-0.5776,-0.5744,-0.5734,-0.572,-0.5704,-0.5692,-0.5668,-0.5657,-0.5631,-0.5624,-0.5605,-0.5588,-0.556,-0.5539,-0.552,-0.5513,-0.5516,-0.551,-0.5516,-0.5513,-0.5514,-0.5513,-0.5518,-0.5518,-0.5518,-0.5519,0,-0.5796,-0.5785,-0.5768,-0.5746,-0.5732,-0.5714,-0.5696,-0.5689,-0.5662,-0.5649,-0.563,-0.5617,-0.5592,-0.5573,-0.5551,-0.5537,-0.5523,-0.5521,-0.5519,-0.5525,-0.5534,-0.5529,-0.5517,-0.5521,-0.552,-0.552,-0.552,-0.552,-0.5807,-0.5798,-0.5774,-0.5756,-0.5739,-0.5722,-0.5712,-0.5693,-0.5677,-0.5654,-0.5641,-0.5623,-0.5601,-0.557,-0.5557,-0.5543,-0.5538,-0.5536,-0.5536,-0.5536,-0.5537,-0.5536,-0.5539,-0.5538,-0.5538,-0.5538,-0.5538,0,-0.5817,-0.5801,-0.5784,-0.5758,-0.5744,-0.5732,-0.5711,-0.5699,-0.5683,-0.5664,-0.5648,-0.5626,-0.5607,-0.5585,-0.5565,-0.5558,-0.5551,-0.5554,-0.5554,-0.5551,-0.5543,-0.5546,-0.5559,-0.5559,-0.5559,-0.5559,-0.5559,-0.5559,-0.5821,-0.5805,-0.5791,-0.5767,-0.575,-0.5732,-0.5721,-0.5705,-0.569,-0.5666,-0.5651,-0.5636,-0.5615,-0.5594,-0.5577,-0.557,-0.5564,-0.5568,-0.5561,-0.5553,-0.5551,-0.555,-0.5552,-0.5567,-0.5567,-0.557,-0.557,-0.557]},{"header":{"parameterUnit":"m.s-1","parameterCategory":1,"la1":30.2991,"la2":30.254,"lo1":-89.0895,"lo2":-89.0444,"dy":0.0017,"dx":0.0017,"nx":28,"ny":28,"refTime":"2023-07-18T09:00:00:Z","depth":0,"parameterNumber":3,"parameterNumberName":"V-component_of_WINDS"},"data":[0,0,0,0,0,0,0,0,0,0,0,0,0,0,0,0,0,0,0,0,0,0,0,0,0,0,0,0,0,0,0,0,0,0,0,0,0,0,0,0,0,0,0,0,0,0,0,0,0,0,0,0,0,0,0,0,0,0,5.1963,5.1963,0,5.1936,5.1935,5.1935,5.1861,5.186,5.1858,5.1856,5.183,5.1831,5.1832,0,0,0,0,0,0,0,0,0,0,0,0,0,5.1954,5.1955,5.1963,5.1963,5.1962,5.1936,5.1935,5.1935,5.1861,5.186,5.1858,5.1856,5.183,5.1831,5.1832,0,0,0,0,0,0,0,0,0,0,0,0,0,5.1946,5.1955,5.1963,5.1922,5.1919,5.1936,5.1935,5.1935,5.1862,5.1859,5.1857,5.1855,5.183,5.1831,5.1832,5.1887,0,0,5.1835,5.1836,0,0,0,0,0,0,0,0,5.1946,5.1946,5.1929,5.1925,5.1921,5.1899,5.1922,5.1919,5.1862,5.1883,5.1856,5.1854,5.1855,5.1854,5.1854,5.1886,5.1885,5.1836,5.1836,5.1837,5.1837,0,0,0,0,0,0,0,5.1947,5.1947,5.1952,5.1929,5.1924,5.1906,5.1903,5.1921,5.1883,5.1881,5.1876,5.1874,5.1853,5.1853,5.1853,5.1884,5.1836,5.1837,5.1837,5.1838,5.1961,5.1963,0,0,0,0,0,0,5.1953,5.1948,5.1953,5.1951,5.1928,5.1908,5.1904,5.1909,5.1883,5.1876,5.1876,5.187,5.1853,5.1852,5.1852,5.1915,5.1837,5.1838,5.1839,5.1958,5.1961,5.1964,0,0,0,0,0,0,5.1953,5.1954,5.1954,5.1948,5.1947,5.1911,5.1917,5.1909,5.191,5.1878,5.1871,5.1883,5.1851,5.185,5.1879,5.1913,5.1838,5.1839,5.1955,5.1959,5.1962,5.2042,0,0,0,0,0,0,5.1953,5.1955,5.1975,5.1949,5.1947,5.1981,5.1919,5.1911,5.1912,5.1905,5.1884,5.1878,5.1849,5.1878,5.188,5.1913,5.184,5.1952,5.1957,5.1961,5.2036,5.2048,5.2058,0,0,0,0,0,5.1953,5.1998,5.1976,5.1977,5.1971,5.1983,5.1982,5.1947,5.1915,5.1935,5.1915,5.1879,5.1909,5.1881,5.1883,5.1918,5.1949,5.1955,5.1961,5.2031,5.2046,5.2058,0,0,0,0,0,0,5.2029,5.1994,5.1969,5.2007,5.1999,5.1971,5.1995,5.1964,5.1965,5.1958,5.1915,5.1911,5.1946,5.1934,5.1904,5.197,5.1923,5.193,5.1976,5.199,5.2001,5.2003,5.1841,0,0,0,0,0,5.205,5.2062,5.2031,5.2068,5.2065,5.2031,5.2035,5.2009,5.1998,5.1995,5.1976,5.1969,5.1976,5.1982,5.1988,5.2034,5.2029,5.2059,5.207,5.208,5.2086,5.2111,5.2124,5.1983,5.1983,5.1983,0,0,5.2094,5.2076,5.2086,5.2083,5.2073,5.2087,5.2028,5.2045,5.2056,5.1997,5.2023,5.201,5.1998,5.2037,5.2052,5.2028,5.2124,5.2087,5.2095,5.2096,5.2118,5.2131,5.2143,5.1987,5.1986,5.1985,0,0,5.2181,5.2168,5.2198,5.219,5.2176,5.2153,5.2161,5.2138,5.2126,5.2152,5.2108,5.212,5.2135,5.2128,5.2127,5.2213,5.218,5.2216,5.2274,5.2299,5.231,5.232,5.2351,5.2363,5.2223,5.2223,5.2223,0,5.2237,5.2256,5.2217,5.2237,5.2237,5.2185,5.2215,5.2209,5.2198,5.22,5.2173,5.219,5.2179,5.2215,5.2236,5.2237,5.2245,5.2218,5.2311,5.2321,5.2329,5.2359,5.2371,5.2227,5.2227,5.2226,5.2226,0,5.2326,5.234,5.2365,5.2356,5.2359,5.2384,5.235,5.2358,5.2332,5.2313,5.234,5.2325,5.2326,5.2333,5.2308,5.2366,5.2352,5.2319,5.2271,5.2348,5.2375,5.2386,5.2234,5.2232,5.2231,5.223,0,0,5.2459,5.2429,5.2439,5.2434,5.2416,5.2426,5.245,5.2451,5.2459,5.2454,5.2473,5.2487,5.2456,5.2455,5.2429,5.245,5.2521,5.2415,5.2414,5.2435,5.2585,5.2611,5.2624,5.2499,5.2501,5.2502,5.2586,0,5.2541,5.2579,5.2545,5.259,5.2603,5.2554,5.2574,5.2566,5.2549,5.2558,5.2539,5.255,5.2509,5.2508,5.2527,5.2508,5.255,5.2502,5.2517,5.2518,5.2521,5.2638,5.2664,5.2745,5.2597,5.2598,5.26,0,5.2642,5.2641,5.2687,5.2667,5.2671,5.269,5.2689,5.2698,5.2688,5.2674,5.2673,5.2642,5.2664,5.2618,5.2649,5.2616,5.2621,5.2613,5.2615,5.2615,5.2564,5.2642,5.2769,5.2782,5.2616,5.2615,5.2613,0,5.2736,5.2746,5.2775,5.2772,5.2749,5.2764,5.2755,5.2742,5.2746,5.2745,5.2747,5.275,5.2752,5.2755,5.2725,5.2694,5.276,5.2711,5.275,5.2751,5.2766,5.2766,5.2896,5.2769,5.2769,5.2768,5.2768,0,5.2831,5.2861,5.2816,5.2834,5.2867,5.2829,5.2862,5.2848,5.2838,5.2853,5.2811,5.2826,5.2786,5.2797,5.2774,5.2803,5.2804,5.2794,5.2788,5.2798,5.28,5.2801,5.2794,5.2771,5.2771,5.277,5.277,0,5.2941,5.2912,5.294,5.2916,5.2911,5.2936,5.2916,5.2932,5.2912,5.2932,5.2934,5.2904,5.2915,5.2885,5.2892,5.2877,5.292,5.2904,5.2923,5.2918,5.2959,5.2956,5.3096,5.3112,5.2974,5.2975,5.2977,0,5.3004,5.3025,5.3004,5.3011,5.3004,5.3016,5.3019,5.2983,5.2988,5.2979,5.2997,5.3004,5.3008,5.3029,5.3008,5.3013,5.2997,5.3046,5.2998,5.3008,5.2999,5.2998,5.3,5.3056,5.3058,5.3059,5.306,0,5.3119,5.3104,5.311,5.3111,5.3117,5.3116,5.3113,5.3121,5.3083,5.3091,5.3102,5.3105,5.3112,5.312,5.3121,5.3113,5.3081,5.3075,5.3085,5.3096,5.3106,5.3102,5.2951,5.3072,5.3071,5.307,5.3069,5.3069,5.3207,5.3225,5.3212,5.3221,5.3215,5.3213,5.3227,5.321,5.3218,5.322,5.3199,5.3215,5.3205,5.3203,5.3198,5.321,5.3188,5.3201,5.3205,5.3209,5.3216,5.3104,5.321,5.321,5.3209,5.3209,5.3209,0,5.332,5.331,5.3319,5.3316,5.3323,5.3291,5.3287,5.3295,5.3309,5.3303,5.3308,5.3321,5.3329,5.3309,5.3314,5.3328,5.3314,5.3331,5.333,5.3329,5.3235,5.3227,5.3343,5.3343,5.3343,5.3343,5.3343,5.3343,5.338,5.3409,5.3392,5.3418,5.3408,5.3422,5.3422,5.3421,5.3416,5.3432,5.3439,5.3425,5.3414,5.3418,5.3425,5.3419,5.3423,5.3446,5.3435,5.3348,5.3335,5.3322,5.3314,5.3447,5.3447,5.3527,5.3528,5.3529]}]]